Starlink 31097

operational
NORAD ID: 58718 Int'l Des: 2024-002 Owner: SPXS Country: US Constellation: starlink
LEOCIRCULAR

About Starlink 31097

Description loading...

Live Position

Loading 3D Globe...

Upcoming Passes

Altitude History

Altitude vs Time

uPlot chart will show altitude changes over time

Two-Line Element Set

1 58718U 24002P 26070.11544990 .00000040 00000-0 13479-4 0 9997
2 58718 53.1604 223.3098 0001006 103.6297 256.4816 15.30200455122239
Epoch: Mar 11, 2026 • Age: 10 hours

Current Status

Altitude 475.1 km
Velocity 7.63 km/s
Sub-Earth Point 17.04°N, 73.73°E
Launch Date Jan 3, 2024
Age 2.1 years
Type internet

Technical Details

Classification Payload
Mass 730.00 kg
Dry Mass 700.00 kg
Total Mass 730.00 kg
Length 0.30 m
Diameter 4.10 m
Span 29.00 m
Shape Box + pan
Manufacturer SPXS
Bus Type Starlink V2M
Phase Status In Orbit
Owner/State SPXS/US

Large Constellations

Loading constellations...